When you browse on this site, cookies collect data to enhance your experience and personalize the content and advertising you see.
Visit our Privacy Policy to learn more. By continuing to use the site, you agree to this use of cookies and data.

Stündliche Wetter Veere

Heute, 27 September, Sonntag

Zeit Temperatur Niederschläge Wind Luftdruck Luftfeuchtigkeit
00:00 +13°C° 0 mm 13 m/S 750 mmHg 84%
01:00 +13°C° 1.3 mm 14 m/S 750 mmHg 84%
02:00 +13°C° 1.3 mm 16 m/S 749 mmHg 85%
03:00 +14°C° 1.3 mm 17 m/S 748 mmHg 85%
04:00 +14°C° 0.6 mm 16 m/S 748 mmHg 85%
05:00 +15°C° 0.6 mm 15 m/S 748 mmHg 85%
06:00 +17°C° 0.6 mm 15 m/S 749 mmHg 84%
07:00 +15°C° 0.2 mm 13 m/S 749 mmHg 83%
08:00 +16°C° 0.2 mm 11 m/S 750 mmHg 82%
09:00 +16°C° 0.2 mm 9 m/S 751 mmHg 80%
10:00 +16°C° 0 mm 8 m/S 751 mmHg 76%
11:00 +16°C° 0 mm 7 m/S 752 mmHg 73%
12:00 +17°C° 0 mm 6 m/S 752 mmHg 69%
13:00 +17°C° 0 mm 6 m/S 753 mmHg 69%
14:00 +17°C° 0 mm 6 m/S 753 mmHg 68%
15:00 +17°C° 0 mm 5 m/S 753 mmHg 67%
16:00 +16°C° 0 mm 5 m/S 754 mmHg 69%
17:00 +17°C° 0 mm 4 m/S 754 mmHg 72%
18:00 +15°C° 0 mm 4 m/S 754 mmHg 74%
19:00 +15°C° 0 mm 4 m/S 755 mmHg 75%
20:00 +16°C° 0 mm 3 m/S 755 mmHg 76%
21:00 +16°C° 0 mm 2 m/S 755 mmHg 77%
22:00 +15°C° 0.2 mm 2 m/S 755 mmHg 80%
23:00 +15°C° 0.2 mm 2 m/S 755 mmHg 83%

Morgen, 28 September, Montag

Zeit Temperatur Niederschläge Wind Luftdruck Luftfeuchtigkeit
00:00 +15°C° 0.2 mm 2 m/S 755 mmHg 85%
01:00 +14°C° 0.7 mm 3 m/S 755 mmHg 89%
02:00 +14°C° 0.7 mm 5 m/S 755 mmHg 92%
03:00 +14°C° 0.7 mm 6 m/S 755 mmHg 95%
04:00 +15°C° 0.3 mm 7 m/S 755 mmHg 94%
05:00 +16°C° 0.3 mm 7 m/S 755 mmHg 94%
06:00 +17°C° 0.3 mm 8 m/S 755 mmHg 93%
07:00 +17°C° 0.2 mm 8 m/S 755 mmHg 93%
08:00 +17°C° 0.2 mm 8 m/S 755 mmHg 92%
09:00 +17°C° 0.2 mm 8 m/S 755 mmHg 92%
10:00 +17°C° 0.2 mm 8 m/S 755 mmHg 91%
11:00 +17°C° 0.2 mm 8 m/S 755 mmHg 90%
12:00 +17°C° 0.2 mm 7 m/S 755 mmHg 90%
13:00 +17°C° 0.1 mm 8 m/S 755 mmHg 89%
14:00 +17°C° 0.1 mm 8 m/S 755 mmHg 89%
15:00 +17°C° 0.1 mm 8 m/S 756 mmHg 89%
16:00 +16°C° 0.1 mm 8 m/S 756 mmHg 90%
17:00 +16°C° 0.1 mm 8 m/S 756 mmHg 91%
18:00 +16°C° 0.1 mm 7 m/S 757 mmHg 91%
19:00 +15°C° 0.1 mm 7 m/S 757 mmHg 91%
20:00 +15°C° 0.1 mm 7 m/S 757 mmHg 91%
21:00 +15°C° 0.1 mm 7 m/S 758 mmHg 91%
22:00 +15°C° 0.1 mm 6 m/S 758 mmHg 90%
23:00 +15°C° 0.1 mm 6 m/S 758 mmHg 88%

übermorgen, 29 September, Dienstag

Zeit Temperatur Niederschläge Wind Luftdruck Luftfeuchtigkeit
00:00 +14°C° 0.1 mm 6 m/S 758 mmHg 86%
01:00 +14°C° 0 mm 5 m/S 759 mmHg 83%
02:00 +14°C° 0 mm 5 m/S 759 mmHg 79%
03:00 +14°C° 0 mm 5 m/S 759 mmHg 76%
04:00 +13°C° 0 mm 4 m/S 759 mmHg 77%
05:00 +13°C° 0 mm 4 m/S 759 mmHg 79%
06:00 +12°C° 0 mm 4 m/S 760 mmHg 80%
07:00 +13°C° 0 mm 4 m/S 760 mmHg 78%
08:00 +16°C° 0 mm 3 m/S 760 mmHg 75%
09:00 +17°C° 0 mm 3 m/S 760 mmHg 73%
10:00 +18°C° 0 mm 3 m/S 760 mmHg 71%
11:00 +19°C° 0 mm 3 m/S 760 mmHg 69%
12:00 +20°C° 0 mm 3 m/S 761 mmHg 67%
13:00 +20°C° 0 mm 3 m/S 760 mmHg 68%
14:00 +20°C° 0 mm 2 m/S 760 mmHg 69%
15:00 +21°C° 0 mm 1 m/S 760 mmHg 70%
16:00 +19°C° 0.4 mm 2 m/S 760 mmHg 76%
17:00 +17°C° 0.4 mm 2 m/S 760 mmHg 82%
18:00 +16°C° 0.4 mm 2 m/S 760 mmHg 89%
19:00 +16°C° 0.1 mm 3 m/S 760 mmHg 89%
20:00 +14°C° 0.1 mm 4 m/S 760 mmHg 89%
21:00 +14°C° 0.1 mm 5 m/S 760 mmHg 89%
22:00 +13°C° 0 mm 5 m/S 760 mmHg 89%
23:00 +13°C° 0 mm 5 m/S 760 mmHg 90%

30 September, Mittwoch

Zeit Temperatur Niederschläge Wind Luftdruck Luftfeuchtigkeit
00:00 +11°C° 0 mm 6 m/S 759 mmHg 90%
01:00 +12°C° 0 mm 5 m/S 759 mmHg 91%
02:00 +10°C° 0 mm 5 m/S 759 mmHg 92%
03:00 +10°C° 0 mm 5 m/S 759 mmHg 92%
04:00 +10°C° 0 mm 5 m/S 759 mmHg 92%
05:00 +10°C° 0 mm 5 m/S 759 mmHg 92%
06:00 +11°C° 0 mm 4 m/S 759 mmHg 92%
07:00 +12°C° 0 mm 5 m/S 758 mmHg 87%
08:00 +13°C° 0 mm 5 m/S 758 mmHg 82%
09:00 +15°C° 0 mm 5 m/S 758 mmHg 76%
10:00 +16°C° 0 mm 5 m/S 758 mmHg 75%
11:00 +17°C° 0 mm 5 m/S 758 mmHg 73%
12:00 +19°C° 0 mm 4 m/S 757 mmHg 72%
13:00 +17°C° 0.6 mm 5 m/S 757 mmHg 75%
14:00 +17°C° 0.6 mm 5 m/S 756 mmHg 79%
15:00 +17°C° 0.6 mm 6 m/S 756 mmHg 82%
16:00 +16°C° 0.3 mm 6 m/S 755 mmHg 84%
17:00 +16°C° 0.3 mm 6 m/S 755 mmHg 85%
18:00 +15°C° 0.3 mm 6 m/S 754 mmHg 86%
19:00 +15°C° 0.2 mm 7 m/S 754 mmHg 86%
20:00 +15°C° 0.2 mm 7 m/S 753 mmHg 86%
21:00 +15°C° 0.2 mm 8 m/S 753 mmHg 87%
22:00 +15°C° 0.3 mm 8 m/S 752 mmHg 87%
23:00 +15°C° 0.3 mm 8 m/S 751 mmHg 87%

1 Oktober, Donnerstag

Zeit Temperatur Niederschläge Wind Luftdruck Luftfeuchtigkeit
00:00 +15°C° 0.3 mm 8 m/S 750 mmHg 88%
01:00 +15°C° 0.8 mm 9 m/S 750 mmHg 88%
02:00 +15°C° 0.8 mm 9 m/S 749 mmHg 89%
03:00 +13°C° 0.8 mm 9 m/S 748 mmHg 90%
04:00 +13°C° 1.2 mm 9 m/S 747 mmHg 89%
05:00 +13°C° 1.2 mm 10 m/S 746 mmHg 89%
06:00 +13°C° 1.2 mm 10 m/S 745 mmHg 89%
07:00 +13°C° 1.5 mm 10 m/S 744 mmHg 89%
08:00 +13°C° 1.5 mm 10 m/S 744 mmHg 89%
09:00 +13°C° 1.5 mm 10 m/S 743 mmHg 90%
10:00 +13°C° 1.6 mm 9 m/S 742 mmHg 88%
11:00 +13°C° 1.6 mm 8 m/S 742 mmHg 86%
12:00 +15°C° 1.6 mm 7 m/S 742 mmHg 85%
13:00 +13°C° 2.2 mm 8 m/S 742 mmHg 85%
14:00 +12°C° 2.2 mm 10 m/S 743 mmHg 85%
15:00 +10°C° 2.2 mm 12 m/S 743 mmHg 86%
16:00 +9°C° 0.5 mm 11 m/S 744 mmHg 81%
17:00 +9°C° 0.5 mm 10 m/S 745 mmHg 76%
18:00 +9°C° 0.5 mm 10 m/S 746 mmHg 71%
19:00 +10°C° 0 mm 9 m/S 746 mmHg 74%
20:00 +9°C° 0 mm 8 m/S 746 mmHg 77%
21:00 +9°C° 0 mm 8 m/S 747 mmHg 80%
22:00 +9°C° 0.2 mm 7 m/S 746 mmHg 81%
23:00 +8°C° 0.2 mm 7 m/S 745 mmHg 82%

2 Oktober, Freitag

Zeit Temperatur Niederschläge Wind Luftdruck Luftfeuchtigkeit
00:00 +8°C° 0.2 mm 7 m/S 745 mmHg 83%
01:00 +7°C° 0.7 mm 8 m/S 744 mmHg 84%
02:00 +7°C° 0.7 mm 9 m/S 743 mmHg 86%
03:00 +8°C° 0.7 mm 9 m/S 743 mmHg 88%
04:00 +8°C° 0.5 mm 10 m/S 742 mmHg 87%
05:00 +8°C° 0.5 mm 10 m/S 742 mmHg 86%
06:00 +8°C° 0.5 mm 11 m/S 742 mmHg 85%
07:00 +9°C° 0.2 mm 10 m/S 742 mmHg 82%
08:00 +10°C° 0.2 mm 9 m/S 742 mmHg 79%
09:00 +11°C° 0.2 mm 8 m/S 742 mmHg 76%
10:00 +11°C° 0.2 mm 8 m/S 742 mmHg 72%
11:00 +12°C° 0.2 mm 8 m/S 742 mmHg 69%
12:00 +12°C° 0.2 mm 8 m/S 742 mmHg 65%
13:00 +12°C° 0.1 mm 7 m/S 742 mmHg 64%
14:00 +14°C° 0.1 mm 7 m/S 741 mmHg 63%
15:00 +14°C° 0.1 mm 6 m/S 741 mmHg 62%
16:00 +13°C° 0.3 mm 6 m/S 740 mmHg 70%
17:00 +11°C° 0.3 mm 6 m/S 740 mmHg 78%
18:00 +10°C° 0.3 mm 6 m/S 739 mmHg 86%
19:00 +9°C° 1 mm 7 m/S 739 mmHg 88%
20:00 +9°C° 1 mm 8 m/S 738 mmHg 90%
21:00 +8°C° 1 mm 9 m/S 737 mmHg 92%
22:00 +10°C° 2.3 mm 8 m/S 736 mmHg 92%
23:00 +11°C° 2.3 mm 8 m/S 735 mmHg 93%
Mehr zeigen